VIR128K KJFK-EGCC

Flight info

Callsign VIR128K
Flight time N/A
Altitude 37000
Route MERIT DCT HFD DCT PUT DCT WITCH DCT ALLEX N535B UMESI/M085F380 DCT 5130N05000W 5330N04000W 5430N03000W 5430N02000W DCT NEBIN DCT OLGON/N0489F390 DCT BOFUM Q37 MALUD
Aircraft A35K/H-SDE2E3GHIJ3J4J5LM1ORWXY/LB1D1

Departure

Time 2026-05-09 14:29
Airport John F. Kennedy International Airport (KJFK)

Arrival

Time N/A
Airport Manchester Airport (EGCC)
Time Latitude Longitude Altitude Speed Heading
2026-05-09 13:16 40.64389 -73.77920 28 ft 0 kts 239°
2026-05-09 14:13 40.64398 -73.77899 27 ft 4 kts 239°
2026-05-09 14:14 40.64373 -73.77696 27 ft 4 kts 325°
2026-05-09 14:15 40.64352 -73.77679 26 ft 2 kts 331°
2026-05-09 14:15 40.64330 -73.77663 27 ft 4 kts 331°
2026-05-09 14:15 40.64307 -73.77646 27 ft 4 kts 331°
2026-05-09 14:15 40.64283 -73.77629 27 ft 4 kts 330°
2026-05-09 14:16 40.64260 -73.77611 28 ft 4 kts 330°
2026-05-09 14:16 40.64236 -73.77594 27 ft 4 kts 330°
2026-05-09 14:16 40.64213 -73.77577 27 ft 4 kts 330°
2026-05-09 14:16 40.64189 -73.77559 26 ft 4 kts 330°
2026-05-09 14:17 40.64165 -73.77542 27 ft 4 kts 330°
2026-05-09 14:17 40.64142 -73.77525 26 ft 4 kts 330°
2026-05-09 14:17 40.64121 -73.77510 27 ft 4 kts 341°
2026-05-09 14:17 40.64096 -73.77506 27 ft 4 kts 12°
2026-05-09 14:18 40.64071 -73.77518 27 ft 3 kts 30°
2026-05-09 14:18 40.64050 -73.77534 27 ft 4 kts 31°
2026-05-09 14:18 40.64037 -73.77545 27 ft 0 kts 31°
2026-05-09 14:21 40.64038 -73.77544 27 ft 1 kts 30°
2026-05-09 14:22 40.64051 -73.77534 27 ft 4 kts 31°
2026-05-09 14:22 40.64079 -73.77507 27 ft 6 kts 47°
2026-05-09 14:22 40.64086 -73.77465 25 ft 4 kts 98°
2026-05-09 14:22 40.64068 -73.77431 26 ft 6 kts 131°
2026-05-09 14:23 40.64041 -73.77379 26 ft 7 kts 123°
2026-05-09 14:23 40.64036 -73.77316 28 ft 7 kts 66°
2026-05-09 14:23 40.64069 -73.77272 29 ft 7 kts 37°
2026-05-09 14:23 40.64121 -73.77229 31 ft 13 kts 32°
2026-05-09 14:24 40.64221 -73.77149 29 ft 20 kts 31°
2026-05-09 14:24 40.64345 -73.77052 28 ft 20 kts 31°
2026-05-09 14:24 40.64458 -73.76996 30 ft 16 kts
2026-05-09 14:24 40.64558 -73.76947 30 ft 14 kts 30°
2026-05-09 14:25 40.64636 -73.76888 29 ft 9 kts 30°
2026-05-09 14:25 40.64656 -73.76873 29 ft 3 kts 31°
2026-05-09 14:25 40.64661 -73.76869 29 ft 0 kts 31°
2026-05-09 14:26 40.64666 -73.76865 26 ft 5 kts 31°
2026-05-09 14:26 40.64743 -73.76805 27 ft 19 kts 31°
2026-05-09 14:26 40.64847 -73.76724 28 ft 15 kts 31°
2026-05-09 14:26 40.64945 -73.76648 27 ft 18 kts 30°
2026-05-09 14:27 40.65048 -73.76568 27 ft 14 kts 31°
2026-05-09 14:27 40.65091 -73.76520 27 ft 6 kts 58°
2026-05-09 14:27 40.65092 -73.76466 28 ft 8 kts 101°
2026-05-09 14:27 40.65058 -73.76385 29 ft 11 kts 136°
2026-05-09 14:28 40.65002 -73.76374 28 ft 8 kts 196°
2026-05-09 14:28 40.64946 -73.76415 28 ft 15 kts 210°
2026-05-09 14:28 40.64652 -73.76645 31 ft 84 kts 210°
2026-05-09 14:28 40.63964 -73.77182 28 ft 144 kts 211°
2026-05-09 14:29 40.62994 -73.77960 318 ft 170 kts 210°
2026-05-09 14:29 40.61936 -73.78743 943 ft 180 kts 208°
2026-05-09 14:29 40.60837 -73.79580 1608 ft 188 kts 213°
2026-05-09 14:29 40.59716 -73.80506 2273 ft 193 kts 214°
2026-05-09 14:30 40.58533 -73.81380 2888 ft 204 kts 205°
2026-05-09 14:30 40.57039 -73.81526 3305 ft 233 kts 174°
2026-05-09 14:30 40.55520 -73.80525 3726 ft 259 kts 145°
2026-05-09 14:30 40.54452 -73.78526 4218 ft 280 kts 116°
2026-05-09 14:31 40.54186 -73.75955 5071 ft 291 kts 88°
2026-05-09 14:31 40.54798 -73.73402 5966 ft 298 kts 61°
2026-05-09 14:31 40.56061 -73.71212 6792 ft 302 kts 49°
2026-05-09 14:31 40.57495 -73.69170 7577 ft 306 kts 47°
2026-05-09 14:32 40.58973 -73.67125 8434 ft 310 kts 47°
2026-05-09 14:32 40.60479 -73.65054 9280 ft 314 kts 47°
2026-05-09 14:32 40.62005 -73.62960 10083 ft 320 kts 47°
2026-05-09 14:32 40.63568 -73.60812 10676 ft 332 kts 47°
2026-05-09 14:33 40.65273 -73.58629 11021 ft 354 kts 38°
2026-05-09 14:33 40.67389 -73.56801 11383 ft 373 kts 28°
2026-05-09 14:33 40.69714 -73.55184 11726 ft 392 kts 24°
2026-05-09 14:33 40.72239 -73.53635 12104 ft 408 kts 21°
2026-05-09 14:34 40.74866 -73.52113 12779 ft 414 kts 21°
2026-05-09 14:34 40.77527 -73.50584 13515 ft 420 kts 20°
2026-05-09 14:34 40.80218 -73.49023 14224 ft 425 kts 20°
2026-05-09 14:34 40.82860 -73.47187 14885 ft 433 kts 31°
2026-05-09 14:35 40.85196 -73.44623 15545 ft 440 kts 42°
2026-05-09 14:35 40.87325 -73.41672 16165 ft 447 kts 46°
2026-05-09 14:35 40.89351 -73.38513 16797 ft 453 kts 49°
2026-05-09 14:35 40.91323 -73.35248 17484 ft 459 kts 50°
2026-05-09 14:36 40.93307 -73.31898 18200 ft 464 kts 50°
2026-05-09 14:36 40.95284 -73.28566 18758 ft 469 kts 49°
2026-05-09 14:36 40.97313 -73.25172 19433 ft 473 kts 49°
2026-05-09 14:36 40.99384 -73.21738 20137 ft 477 kts 48°
2026-05-09 14:37 41.01473 -73.18293 20776 ft 482 kts 48°
2026-05-09 14:37 41.03582 -73.14824 21402 ft 487 kts 48°
2026-05-09 14:37 41.05724 -73.11304 22017 ft 492 kts 48°
2026-05-09 14:37 41.07881 -73.07757 22623 ft 497 kts 48°
2026-05-09 14:38 41.10067 -73.04157 23240 ft 502 kts 47°
2026-05-09 14:38 41.12263 -73.00534 23805 ft 506 kts 47°
2026-05-09 14:38 41.14477 -72.96875 24328 ft 511 kts 47°
2026-05-09 14:38 41.16712 -72.93179 24817 ft 515 kts 47°
2026-05-09 14:39 41.18958 -72.89455 25401 ft 517 kts 47°
2026-05-09 14:39 41.21210 -72.85719 25934 ft 520 kts 47°
2026-05-09 14:39 41.23455 -72.81990 26471 ft 524 kts 47°
2026-05-09 14:39 41.25765 -72.78148 27023 ft 527 kts 47°
2026-05-09 14:40 41.28058 -72.74330 27551 ft 530 kts 47°
2026-05-09 14:40 41.30363 -72.70488 28137 ft 534 kts 46°
2026-05-09 14:40 41.32651 -72.66668 28693 ft 536 kts 46°
2026-05-09 14:40 41.34980 -72.62776 29205 ft 539 kts 46°
2026-05-09 14:41 41.37324 -72.58856 29656 ft 542 kts 46°
2026-05-09 14:41 41.39676 -72.54914 30073 ft 546 kts 46°
2026-05-09 14:41 41.42037 -72.50952 30581 ft 545 kts 46°
2026-05-09 14:41 41.44388 -72.46998 31196 ft 542 kts 46°
2026-05-09 14:42 41.46724 -72.43064 31738 ft 541 kts 46°
2026-05-09 14:42 41.49058 -72.39130 32198 ft 541 kts 46°
2026-05-09 14:42 41.51393 -72.35192 32698 ft 539 kts 46°
2026-05-09 14:42 41.53715 -72.31269 33253 ft 538 kts 46°
2026-05-09 14:43 41.56032 -72.27352 33731 ft 536 kts 46°
2026-05-09 14:43 41.58340 -72.23445 34113 ft 536 kts 47°
2026-05-09 14:43 41.60653 -72.19527 34378 ft 538 kts 47°
2026-05-09 14:43 41.62940 -72.15646 34672 ft 538 kts 47°
2026-05-09 14:44 41.65260 -72.11703 35031 ft 537 kts 47°
2026-05-09 14:44 41.67572 -72.07768 35292 ft 538 kts 47°
2026-05-09 14:44 41.69882 -72.03832 35510 ft 540 kts 47°
2026-05-09 14:44 41.72208 -71.99865 35765 ft 541 kts 47°
2026-05-09 14:45 41.74532 -71.95893 36025 ft 542 kts 47°
2026-05-09 14:45 41.76848 -71.91931 36232 ft 543 kts 47°
2026-05-09 14:45 41.79191 -71.87917 36504 ft 544 kts 47°
2026-05-09 14:45 41.81524 -71.83913 36758 ft 544 kts 47°
2026-05-09 14:46 41.83853 -71.79912 36979 ft 546 kts 47°
2026-05-09 14:46 41.86198 -71.75880 37027 ft 551 kts 47°
2026-05-09 14:46 41.90932 -71.67725 37026 ft 553 kts 47°
2026-05-09 14:47 41.95650 -71.59566 37032 ft 553 kts 47°
2026-05-09 14:47 42.00366 -71.51389 37025 ft 553 kts 47°
2026-05-09 14:48 42.05077 -71.43203 37027 ft 553 kts 47°
2026-05-09 14:48 42.09779 -71.35012 37051 ft 553 kts 47°
2026-05-09 14:49 42.14480 -71.26799 37032 ft 554 kts 47°
2026-05-09 14:49 42.19151 -71.18616 37046 ft 554 kts 47°
2026-05-09 14:50 42.23842 -71.10376 37045 ft 554 kts 47°
2026-05-09 14:50 42.28533 -71.02113 37052 ft 555 kts 47°
2026-05-09 14:51 42.33224 -70.93827 37056 ft 555 kts 47°
2026-05-09 14:51 42.37913 -70.85521 37058 ft 555 kts 47°
2026-05-09 14:52 42.42587 -70.77218 37054 ft 554 kts 47°
2026-05-09 14:52 42.47256 -70.68901 37049 ft 554 kts 47°
2026-05-09 14:53 42.51929 -70.60556 37047 ft 555 kts 47°
2026-05-09 14:53 42.56582 -70.52224 37046 ft 555 kts 47°
2026-05-09 14:54 42.61229 -70.43876 37048 ft 554 kts 47°
2026-05-09 14:54 42.65844 -70.35564 37048 ft 554 kts 47°
2026-05-09 14:55 42.70488 -70.27178 37074 ft 554 kts 48°
2026-05-09 14:55 42.75101 -70.18822 37047 ft 554 kts 47°
2026-05-09 14:56 42.78958 -70.11818 37054 ft 553 kts 47°
2026-05-09 14:56 42.83568 -70.03426 37059 ft 553 kts 47°
2026-05-09 14:57 42.88172 -69.95019 37058 ft 553 kts 48°
2026-05-09 14:57 42.92774 -69.86594 37069 ft 552 kts 48°
2026-05-09 14:58 42.97357 -69.78179 37067 ft 552 kts 48°
2026-05-09 14:58 43.01929 -69.69761 37068 ft 552 kts 48°
2026-05-09 14:59 43.06476 -69.61364 37069 ft 552 kts 48°
2026-05-09 14:59 43.11044 -69.52907 37069 ft 552 kts 48°
2026-05-09 15:00 43.15602 -69.44441 37073 ft 551 kts 48°
2026-05-09 15:00 43.20149 -69.35970 37075 ft 550 kts 48°
2026-05-09 15:01 43.26918 -69.23319 37095 ft 550 kts 48°
2026-05-09 15:02 43.31443 -69.14832 37072 ft 549 kts 48°
2026-05-09 15:02 43.35950 -69.06351 37072 ft 549 kts 48°
2026-05-09 15:03 43.40457 -68.97851 37075 ft 549 kts 48°
2026-05-09 15:03 43.44948 -68.89352 37063 ft 548 kts 48°
2026-05-09 15:04 43.49396 -68.80910 37070 ft 547 kts 48°
2026-05-09 15:06 43.67237 -68.46815 37087 ft 548 kts 49°
2026-05-09 15:06 43.71675 -68.38271 37086 ft 548 kts 49°
2026-05-09 15:07 43.76131 -68.29668 37087 ft 549 kts 49°
2026-05-09 15:07 43.80577 -68.21057 37084 ft 549 kts 49°
2026-05-09 15:08 43.84980 -68.12505 37095 ft 549 kts 49°
2026-05-09 15:08 43.91629 -67.99545 37086 ft 549 kts 50°
2026-05-09 15:10 44.09259 -67.64894 37091 ft 549 kts 50°
2026-05-09 15:11 44.13650 -67.56200 37079 ft 549 kts 51°
2026-05-09 15:11 44.18032 -67.47498 37093 ft 548 kts 51°
2026-05-09 15:12 44.22408 -67.38783 37093 ft 547 kts 51°
2026-05-09 15:12 44.26739 -67.30132 37110 ft 547 kts 51°
2026-05-09 15:13 44.31088 -67.21419 37094 ft 546 kts 51°
2026-05-09 15:13 44.35423 -67.12707 37094 ft 545 kts 51°
2026-05-09 15:14 44.39746 -67.03993 37094 ft 545 kts 52°
2026-05-09 15:14 44.44136 -66.95334 37089 ft 544 kts 48°
2026-05-09 15:15 44.48870 -66.87103 37091 ft 542 kts 46°
2026-05-09 15:15 44.53630 -66.78982 37089 ft 542 kts 46°
2026-05-09 15:16 44.58363 -66.70737 37088 ft 541 kts 47°
2026-05-09 15:16 44.63038 -66.62471 37086 ft 541 kts 48°
2026-05-09 15:17 44.67710 -66.54165 37086 ft 541 kts 48°
2026-05-09 15:17 44.72343 -66.45908 37086 ft 541 kts 48°
2026-05-09 15:18 44.76999 -66.37589 37086 ft 540 kts 48°
2026-05-09 15:18 44.81652 -66.29255 37086 ft 540 kts 48°
2026-05-09 15:19 44.86293 -66.20918 37087 ft 541 kts 49°
2026-05-09 15:19 44.90929 -66.12564 37099 ft 540 kts 49°
2026-05-09 15:20 44.97864 -66.00022 37100 ft 540 kts 49°
2026-05-09 15:21 45.02451 -65.91697 37085 ft 539 kts 49°
2026-05-09 15:21 45.07049 -65.83327 37082 ft 539 kts 49°
2026-05-09 15:22 45.11647 -65.74932 37076 ft 539 kts 49°
2026-05-09 15:22 45.16238 -65.66527 37082 ft 539 kts 49°
2026-05-09 15:23 45.20819 -65.58113 37071 ft 539 kts 49°
2026-05-09 15:23 45.25401 -65.49672 37077 ft 539 kts 50°
2026-05-09 15:24 45.29939 -65.41289 37089 ft 539 kts 50°
2026-05-09 15:24 45.34497 -65.32845 37066 ft 538 kts 50°
2026-05-09 15:25 45.39052 -65.24379 37063 ft 538 kts 50°
2026-05-09 15:25 45.43600 -65.15901 37066 ft 538 kts 50°
2026-05-09 15:26 45.50406 -65.03167 37067 ft 537 kts 50°
2026-05-09 15:26 45.54923 -64.94684 37062 ft 537 kts 50°
2026-05-09 15:27 45.59435 -64.86185 37058 ft 537 kts 50°
2026-05-09 15:27 45.63936 -64.77682 37059 ft 536 kts 51°
2026-05-09 15:28 45.68427 -64.69171 37057 ft 536 kts 51°
2026-05-09 15:28 45.72881 -64.60705 37051 ft 536 kts 51°
2026-05-09 15:29 45.77355 -64.52176 37042 ft 536 kts 51°
2026-05-09 15:29 45.81830 -64.43618 37033 ft 536 kts 51°
2026-05-09 15:30 45.86297 -64.35050 37017 ft 536 kts 51°
2026-05-09 15:30 45.90754 -64.26476 37032 ft 536 kts 51°
2026-05-09 15:31 45.95178 -64.17940 37026 ft 535 kts 51°
2026-05-09 15:31 45.99616 -64.09348 37026 ft 535 kts 51°
2026-05-09 15:32 46.04055 -64.00729 37036 ft 535 kts 51°
2026-05-09 15:32 46.08481 -63.92109 37025 ft 535 kts 52°
2026-05-09 15:33 46.12904 -63.83469 37029 ft 535 kts 52°
2026-05-09 15:33 46.17315 -63.74827 37041 ft 535 kts 52°
2026-05-09 15:34 46.21719 -63.66169 37033 ft 535 kts 52°
2026-05-09 15:34 46.26119 -63.57494 37053 ft 535 kts 52°
2026-05-09 15:35 46.30480 -63.48869 37036 ft 535 kts 52°
2026-05-09 15:35 46.34868 -63.40163 37057 ft 535 kts 52°
2026-05-09 15:36 46.39246 -63.31451 37060 ft 535 kts 52°
2026-05-09 15:36 46.43615 -63.22730 37028 ft 535 kts 52°
2026-05-09 15:37 46.47985 -63.13979 37034 ft 535 kts 52°
2026-05-09 15:37 46.52315 -63.05280 37044 ft 535 kts 53°
2026-05-09 15:38 46.56671 -62.96502 37044 ft 534 kts 53°
2026-05-09 15:38 46.61021 -62.87709 37051 ft 534 kts 53°
2026-05-09 15:39 46.65354 -62.78922 37060 ft 534 kts 53°
2026-05-09 15:39 46.69679 -62.70123 37057 ft 534 kts 53°
2026-05-09 15:40 46.73977 -62.61352 37056 ft 534 kts 53°
2026-05-09 15:40 46.78300 -62.52503 37050 ft 535 kts 53°
2026-05-09 15:41 46.81913 -62.45086 37065 ft 535 kts 53°
2026-05-09 15:41 46.86190 -62.36277 37065 ft 535 kts 53°
2026-05-09 15:42 46.90492 -62.27391 37066 ft 535 kts 53°
2026-05-09 15:42 46.94787 -62.18491 37075 ft 535 kts 53°
2026-05-09 15:43 46.99083 -62.09558 37067 ft 535 kts 54°
2026-05-09 15:43 47.03340 -62.00680 37067 ft 535 kts 54°
2026-05-09 15:44 47.07612 -61.91740 37059 ft 535 kts 54°
2026-05-09 15:44 47.11882 -61.82776 37046 ft 535 kts 54°
2026-05-09 15:45 47.16130 -61.73829 37043 ft 534 kts 54°
2026-05-09 15:45 47.20378 -61.64853 37033 ft 534 kts 54°
2026-05-09 15:46 47.24613 -61.55876 37036 ft 534 kts 54°
2026-05-09 15:46 47.28851 -61.46864 37036 ft 534 kts 54°
2026-05-09 15:47 47.33047 -61.37911 37039 ft 534 kts 55°
2026-05-09 15:47 47.37265 -61.28881 37042 ft 534 kts 55°
2026-05-09 15:48 47.41472 -61.19846 37057 ft 534 kts 55°
2026-05-09 15:48 47.45674 -61.10793 37062 ft 534 kts 55°
2026-05-09 15:49 47.49869 -61.01722 37062 ft 534 kts 55°
2026-05-09 15:49 47.54032 -60.92693 37065 ft 534 kts 55°
2026-05-09 15:50 47.58208 -60.83605 37064 ft 534 kts 55°
2026-05-09 15:50 47.62388 -60.74479 37061 ft 534 kts 55°
2026-05-09 15:51 47.66554 -60.65353 37056 ft 534 kts 56°
2026-05-09 15:51 47.70710 -60.56217 37055 ft 535 kts 56°
2026-05-09 15:52 47.76947 -60.42452 37061 ft 535 kts 56°
2026-05-09 15:53 47.81096 -60.33254 37057 ft 535 kts 56°
2026-05-09 15:53 47.85219 -60.24084 37058 ft 535 kts 56°
2026-05-09 15:54 47.89351 -60.14864 37050 ft 535 kts 56°
2026-05-09 15:54 47.93482 -60.05614 37051 ft 535 kts 56°
2026-05-09 15:55 47.97595 -59.96373 37055 ft 535 kts 57°
2026-05-09 15:55 48.01706 -59.87106 37049 ft 534 kts 57°
2026-05-09 15:56 48.05772 -59.77910 37052 ft 533 kts 57°
2026-05-09 15:56 48.09853 -59.68645 37047 ft 533 kts 57°
2026-05-09 15:57 48.13928 -59.59364 37032 ft 533 kts 57°
2026-05-09 15:57 48.17996 -59.50069 37046 ft 533 kts 58°
2026-05-09 15:58 48.22056 -59.40757 37039 ft 533 kts 58°
2026-05-09 15:58 48.26109 -59.31433 37040 ft 533 kts 58°
2026-05-09 15:59 48.30125 -59.22159 37043 ft 533 kts 58°
2026-05-09 15:59 48.34160 -59.12810 37042 ft 533 kts 58°
2026-05-09 16:00 48.38185 -59.03452 37039 ft 533 kts 58°
2026-05-09 16:00 48.42209 -58.94063 37032 ft 533 kts 58°
2026-05-09 16:01 48.46226 -58.84658 37034 ft 533 kts 59°
2026-05-09 16:01 48.50230 -58.75251 37042 ft 532 kts 59°
2026-05-09 16:02 48.54223 -58.65837 37040 ft 532 kts 59°
2026-05-09 16:02 48.60173 -58.51747 37022 ft 533 kts 59°
2026-05-09 16:03 48.64159 -58.42266 37024 ft 534 kts 59°
2026-05-09 16:03 48.68136 -58.32774 37011 ft 534 kts 59°
2026-05-09 16:04 48.72112 -58.23250 37006 ft 534 kts 60°
2026-05-09 16:04 48.76081 -58.13711 37003 ft 535 kts 60°
2026-05-09 16:05 48.80036 -58.04169 36990 ft 535 kts 60°
2026-05-09 16:05 48.83989 -57.94599 36988 ft 535 kts 60°
2026-05-09 16:06 48.87935 -57.85010 36984 ft 535 kts 60°
2026-05-09 16:06 48.91869 -57.75418 36977 ft 535 kts 60°
2026-05-09 16:07 48.95795 -57.65808 36976 ft 535 kts 60°
2026-05-09 16:07 48.99713 -57.56185 36971 ft 535 kts 60°
2026-05-09 16:08 49.03632 -57.46526 36936 ft 535 kts 60°
2026-05-09 16:08 49.07516 -57.36918 36959 ft 535 kts 61°
2026-05-09 16:09 49.11426 -57.27209 36962 ft 536 kts 61°
2026-05-09 16:09 49.15319 -57.17508 36947 ft 536 kts 61°
2026-05-09 16:10 49.19207 -57.07781 36960 ft 536 kts 61°
2026-05-09 16:10 49.23086 -56.98043 36959 ft 536 kts 62°
2026-05-09 16:11 49.26932 -56.88352 36963 ft 536 kts 62°
2026-05-09 16:11 49.30803 -56.78563 36962 ft 536 kts 62°
2026-05-09 16:12 49.34663 -56.68764 36963 ft 536 kts 62°
2026-05-09 16:12 49.38512 -56.58957 36960 ft 536 kts 62°
2026-05-09 16:13 49.42333 -56.49185 36978 ft 536 kts 62°
2026-05-09 16:13 49.46179 -56.39316 36970 ft 537 kts 63°
2026-05-09 16:14 49.50009 -56.29448 36979 ft 537 kts 63°
2026-05-09 16:14 49.53802 -56.19639 36982 ft 537 kts 63°
2026-05-09 16:15 49.57616 -56.09736 36979 ft 537 kts 63°
2026-05-09 16:15 49.61416 -55.99835 36995 ft 536 kts 63°
2026-05-09 16:16 49.65207 -55.89921 36996 ft 536 kts 63°
2026-05-09 16:16 49.68979 -55.80016 36996 ft 536 kts 63°
2026-05-09 16:17 49.72756 -55.70059 36989 ft 535 kts 63°
2026-05-09 16:17 49.76515 -55.60116 37004 ft 535 kts 64°
2026-05-09 16:18 49.80258 -55.50175 37004 ft 534 kts 64°
2026-05-09 16:18 49.83974 -55.40267 37006 ft 534 kts 64°
2026-05-09 16:19 49.87701 -55.30293 37003 ft 534 kts 64°
2026-05-09 16:19 49.91423 -55.20295 36999 ft 535 kts 65°
2026-05-09 16:20 49.95137 -55.10277 37010 ft 536 kts 65°
2026-05-09 16:20 49.98850 -55.00225 37009 ft 536 kts 65°
2026-05-09 16:21 50.02523 -54.90244 37006 ft 536 kts 65°
2026-05-09 16:21 50.06217 -54.80167 37010 ft 535 kts 65°
2026-05-09 16:22 50.09903 -54.70069 37004 ft 535 kts 66°
2026-05-09 16:22 50.13557 -54.60023 37004 ft 535 kts 66°
2026-05-09 16:23 50.17221 -54.49909 37005 ft 535 kts 66°
2026-05-09 16:23 50.20874 -54.39783 36988 ft 535 kts 66°
2026-05-09 16:24 50.24523 -54.29631 36993 ft 535 kts 66°
2026-05-09 16:24 50.28159 -54.19474 36983 ft 535 kts 66°
2026-05-09 16:25 50.31179 -54.11006 36992 ft 535 kts 66°
2026-05-09 16:25 50.35384 -53.99168 36998 ft 535 kts 67°
2026-05-09 16:26 50.38384 -53.90691 36998 ft 536 kts 67°
2026-05-09 16:26 50.41989 -53.80465 36978 ft 536 kts 67°
2026-05-09 16:27 50.45586 -53.70228 36974 ft 535 kts 68°
2026-05-09 16:27 50.49167 -53.59990 36966 ft 534 kts 68°
2026-05-09 16:28 50.52736 -53.49742 36969 ft 534 kts 68°
2026-05-09 16:28 50.56296 -53.39480 36957 ft 534 kts 69°
2026-05-09 16:29 50.59844 -53.29215 36948 ft 533 kts 69°
2026-05-09 16:29 50.63373 -53.18962 36949 ft 533 kts 69°
2026-05-09 16:30 50.66893 -53.08691 36945 ft 532 kts 69°
2026-05-09 16:30 50.70403 -52.98406 36942 ft 532 kts 69°
2026-05-09 16:31 50.73883 -52.88172 36936 ft 532 kts 70°
2026-05-09 16:31 50.77376 -52.77858 36923 ft 532 kts 70°
2026-05-09 16:32 50.80855 -52.67536 36933 ft 532 kts 70°
2026-05-09 16:32 50.82594 -52.62365 37188 ft 531 kts 70°
2026-05-09 16:32 50.84311 -52.57203 37601 ft 526 kts 72°
2026-05-09 16:33 50.85846 -52.51982 37861 ft 521 kts 75°
2026-05-09 16:33 50.87247 -52.46682 37908 ft 523 kts 76°
2026-05-09 16:33 50.89946 -52.36048 37900 ft 523 kts 76°
2026-05-09 16:34 50.92713 -52.25384 37890 ft 523 kts 76°
2026-05-09 16:34 50.95535 -52.14735 37889 ft 524 kts 76°
2026-05-09 16:35 50.98370 -52.04075 37889 ft 525 kts 76°
2026-05-09 16:35 51.01198 -51.93388 37867 ft 525 kts 76°
2026-05-09 16:36 51.06827 -51.71944 37852 ft 526 kts 76°
2026-05-09 16:37 51.09605 -51.61277 37855 ft 526 kts 77°
2026-05-09 16:37 51.12390 -51.50539 37848 ft 524 kts 77°
2026-05-09 16:38 51.15163 -51.39794 37848 ft 524 kts 77°
2026-05-09 16:38 51.17921 -51.29053 37837 ft 524 kts 77°
2026-05-09 16:39 51.20673 -51.18286 37810 ft 524 kts 77°
2026-05-09 16:39 51.23409 -51.07546 37829 ft 520 kts 77°
2026-05-09 16:40 51.26116 -50.96858 37827 ft 519 kts 78°
2026-05-09 16:42 51.36807 -50.54105 37818 ft 517 kts 79°
2026-05-09 16:42 51.39453 -50.43398 37812 ft 517 kts 79°
2026-05-09 16:43 51.42087 -50.32687 37815 ft 517 kts 79°
2026-05-09 16:43 51.44709 -50.21973 37814 ft 517 kts 79°
2026-05-09 16:44 51.47331 -50.11205 37812 ft 518 kts 79°
2026-05-09 16:44 51.49944 -50.00426 37812 ft 518 kts 79°
2026-05-09 16:45 51.52600 -49.89707 37815 ft 520 kts 78°
2026-05-09 16:45 51.55325 -49.78948 37818 ft 520 kts 78°
2026-05-09 16:46 51.58036 -49.68185 37818 ft 519 kts 79°
2026-05-09 16:46 51.60723 -49.57398 37823 ft 520 kts 79°
2026-05-09 16:47 51.63404 -49.46563 37815 ft 521 kts 79°
2026-05-09 16:47 51.66074 -49.35723 37806 ft 521 kts 79°
2026-05-09 16:48 51.68740 -49.24846 37834 ft 521 kts 79°
2026-05-09 16:48 51.71380 -49.14024 37824 ft 522 kts 79°
2026-05-09 16:49 51.74028 -49.03117 37824 ft 521 kts 79°
2026-05-09 16:50 51.77977 -48.86747 37807 ft 521 kts 79°
2026-05-09 16:50 51.80595 -48.75820 37832 ft 521 kts 79°
2026-05-09 16:51 51.83188 -48.64946 37831 ft 522 kts 79°
2026-05-09 16:51 51.85798 -48.53949 37834 ft 521 kts 79°
2026-05-09 16:52 51.88371 -48.43049 37840 ft 522 kts 79°
2026-05-09 16:52 51.90952 -48.32053 37845 ft 524 kts 79°
2026-05-09 16:53 51.93538 -48.20979 37843 ft 526 kts 79°
2026-05-09 16:53 51.96118 -48.09891 37840 ft 526 kts 79°
2026-05-09 16:54 51.98691 -47.98778 37846 ft 525 kts 79°
2026-05-09 16:54 52.01249 -47.87657 37846 ft 526 kts 79°
2026-05-09 16:55 52.03804 -47.76484 37856 ft 528 kts 79°
2026-05-09 16:55 52.06336 -47.65365 37856 ft 528 kts 79°
2026-05-09 16:56 52.08875 -47.54157 37871 ft 527 kts 79°
2026-05-09 16:56 52.11400 -47.42954 37843 ft 527 kts 79°
2026-05-09 16:57 52.13911 -47.31739 37867 ft 528 kts 78°
2026-05-09 16:57 52.16420 -47.20478 37877 ft 529 kts 78°
2026-05-09 16:58 52.18905 -47.09269 37891 ft 529 kts 78°
2026-05-09 16:58 52.21396 -46.97974 37895 ft 529 kts 79°
2026-05-09 16:59 52.23876 -46.86660 37896 ft 530 kts 78°
2026-05-09 16:59 52.26351 -46.75310 37893 ft 531 kts 78°
2026-05-09 17:00 52.28818 -46.63932 37923 ft 532 kts 78°
2026-05-09 17:00 52.31275 -46.52538 37922 ft 532 kts 78°
2026-05-09 17:01 52.33720 -46.41141 37916 ft 530 kts 78°
2026-05-09 17:01 52.36143 -46.29794 37921 ft 526 kts 78°
2026-05-09 17:02 52.38545 -46.18467 37918 ft 526 kts 78°
2026-05-09 17:02 52.40913 -46.07232 37948 ft 524 kts 78°
2026-05-09 17:03 52.43277 -45.95958 37946 ft 523 kts 78°
2026-05-09 17:05 52.52576 -45.50979 37965 ft 519 kts 78°
2026-05-09 17:05 52.54858 -45.39782 37973 ft 518 kts 78°
2026-05-09 17:06 52.57136 -45.28555 37981 ft 517 kts 78°
2026-05-09 17:06 52.59399 -45.17321 37992 ft 516 kts 78°
2026-05-09 17:07 52.61634 -45.06167 38001 ft 516 kts 78°
2026-05-09 17:07 52.63873 -44.94929 38000 ft 516 kts 78°
2026-05-09 17:08 52.66103 -44.83673 38011 ft 516 kts 78°
2026-05-09 17:08 52.69425 -44.66784 38019 ft 516 kts 78°
2026-05-09 17:09 52.71631 -44.55483 38019 ft 516 kts 78°
2026-05-09 17:09 52.73451 -44.46109 38023 ft 516 kts 78°
2026-05-09 17:10 52.75633 -44.34816 38035 ft 515 kts 78°
2026-05-09 17:10 52.78146 -44.21724 38050 ft 515 kts 78°
2026-05-09 17:11 52.79942 -44.12309 38048 ft 515 kts 78°
2026-05-09 17:11 52.82086 -44.01006 38059 ft 515 kts 78°
2026-05-09 17:12 52.84218 -43.89699 38057 ft 514 kts 78°
2026-05-09 17:12 52.86340 -43.78385 38042 ft 513 kts 78°
2026-05-09 17:13 52.88432 -43.67160 38085 ft 513 kts 78°
2026-05-09 17:13 52.90523 -43.55867 38087 ft 512 kts 78°
2026-05-09 17:14 52.92606 -43.44550 38087 ft 512 kts 78°
2026-05-09 17:14 52.94673 -43.33255 38094 ft 511 kts 78°
2026-05-09 17:15 52.96727 -43.21957 38119 ft 511 kts 78°
2026-05-09 17:15 52.98753 -43.10745 38119 ft 511 kts 78°
2026-05-09 17:17 53.06803 -42.65507 38145 ft 509 kts 78°
2026-05-09 17:18 53.08785 -42.54186 38137 ft 509 kts 78°
2026-05-09 17:18 53.10747 -42.42914 38160 ft 509 kts 78°
2026-05-09 17:19 53.12703 -42.31606 38174 ft 508 kts 78°
2026-05-09 17:19 53.14647 -42.20293 38194 ft 507 kts 78°
2026-05-09 17:20 53.16567 -42.09045 38197 ft 507 kts 78°
2026-05-09 17:20 53.18487 -41.97727 38209 ft 507 kts 78°
2026-05-09 17:21 53.20397 -41.86392 38204 ft 507 kts 78°
2026-05-09 17:21 53.22297 -41.75052 38222 ft 507 kts 78°
2026-05-09 17:22 53.24180 -41.63731 38228 ft 507 kts 78°
2026-05-09 17:22 53.26056 -41.52377 38240 ft 507 kts 78°
2026-05-09 17:23 53.27910 -41.41086 38239 ft 507 kts 78°
2026-05-09 17:23 53.29760 -41.29741 38236 ft 506 kts 78°
2026-05-09 17:25 53.35251 -40.95615 38282 ft 505 kts 78°
2026-05-09 17:25 53.37055 -40.84247 38279 ft 505 kts 78°
2026-05-09 17:26 53.38839 -40.72930 38301 ft 506 kts 78°
2026-05-09 17:26 53.40624 -40.61526 38302 ft 506 kts 78°
2026-05-09 17:27 53.42400 -40.50104 38305 ft 506 kts 78°
2026-05-09 17:27 53.44165 -40.38674 38307 ft 505 kts 78°
2026-05-09 17:28 53.45916 -40.27254 38328 ft 505 kts 78°
2026-05-09 17:28 53.47654 -40.15839 38330 ft 505 kts 78°
2026-05-09 17:29 53.49384 -40.04391 38337 ft 504 kts 78°
2026-05-09 17:29 53.51076 -39.93048 38336 ft 503 kts 79°
2026-05-09 17:30 53.52712 -39.81605 38349 ft 503 kts 79°
2026-05-09 17:30 53.54328 -39.70161 38360 ft 503 kts 79°
2026-05-09 17:31 53.55941 -39.58717 38364 ft 503 kts 79°
2026-05-09 17:32 53.59931 -39.30144 38358 ft 502 kts 79°
2026-05-09 17:33 53.61511 -39.18670 38381 ft 503 kts 79°
2026-05-09 17:33 53.63080 -39.07195 38380 ft 503 kts 79°
2026-05-09 17:34 53.64640 -38.95694 38381 ft 503 kts 79°
2026-05-09 17:35 53.70008 -38.55411 38417 ft 503 kts 79°
2026-05-09 17:36 53.71520 -38.43865 38412 ft 504 kts 79°
2026-05-09 17:36 53.73019 -38.32318 38421 ft 504 kts 79°
2026-05-09 17:37 53.74507 -38.20763 38425 ft 503 kts 79°
2026-05-09 17:37 53.75976 -38.09261 38435 ft 504 kts 79°
2026-05-09 17:38 53.77444 -37.97675 38431 ft 504 kts 79°
2026-05-09 17:39 53.79631 -37.80236 38442 ft 504 kts 79°
2026-05-09 17:39 53.81062 -37.68698 38458 ft 504 kts 79°
2026-05-09 17:40 53.82492 -37.57071 38456 ft 504 kts 79°
2026-05-09 17:40 53.83910 -37.45439 38458 ft 504 kts 79°
2026-05-09 17:41 53.85321 -37.33772 38464 ft 504 kts 79°
2026-05-09 17:41 53.86707 -37.22210 38475 ft 503 kts 79°
2026-05-09 17:42 53.88091 -37.10561 38474 ft 503 kts 79°
2026-05-09 17:42 53.89465 -36.98896 38480 ft 503 kts 79°
2026-05-09 17:43 53.90826 -36.87239 38483 ft 503 kts 79°
2026-05-09 17:43 53.92175 -36.75580 38487 ft 503 kts 79°
2026-05-09 17:44 53.93502 -36.63998 38498 ft 503 kts 79°
2026-05-09 17:44 53.94828 -36.52326 38499 ft 503 kts 79°
2026-05-09 17:45 53.96141 -36.40657 38510 ft 503 kts 79°
2026-05-09 17:45 53.97443 -36.28991 38510 ft 503 kts 79°
2026-05-09 17:46 53.98733 -36.17309 38515 ft 503 kts 79°
2026-05-09 17:46 54.00007 -36.05669 38521 ft 500 kts 79°
2026-05-09 17:47 54.01258 -35.94125 38527 ft 499 kts 78°
2026-05-09 17:47 54.02504 -35.82529 38525 ft 498 kts 78°
2026-05-09 17:48 54.03736 -35.70948 38534 ft 498 kts 78°
2026-05-09 17:48 54.04959 -35.59340 38534 ft 498 kts 78°
2026-05-09 17:49 54.06173 -35.47700 38536 ft 498 kts 79°
2026-05-09 17:49 54.07373 -35.36076 38537 ft 498 kts 79°
2026-05-09 17:50 54.08554 -35.24532 38542 ft 497 kts 79°
2026-05-09 17:50 54.10116 -35.09085 38552 ft 496 kts 79°
2026-05-09 17:51 54.11470 -34.95513 38557 ft 497 kts 79°
2026-05-09 17:51 54.12617 -34.83893 38572 ft 496 kts 78°
2026-05-09 17:52 54.13744 -34.72354 38564 ft 491 kts 78°
2026-05-09 17:52 54.14845 -34.60969 38570 ft 490 kts 79°
2026-05-09 17:53 54.15943 -34.49494 38573 ft 490 kts 79°
2026-05-09 17:53 54.17032 -34.38003 38575 ft 490 kts 79°
2026-05-09 17:54 54.18109 -34.26508 38573 ft 490 kts 79°
2026-05-09 17:54 54.19172 -34.15032 38576 ft 490 kts 79°
2026-05-09 17:55 54.20222 -34.03590 38579 ft 490 kts 79°
2026-05-09 17:55 54.21264 -33.92096 38578 ft 490 kts 79°
2026-05-09 17:56 54.22125 -33.82508 38578 ft 490 kts 79°
2026-05-09 17:57 54.23654 -33.65250 38585 ft 489 kts 79°
2026-05-09 17:57 54.24659 -33.53749 38594 ft 488 kts 79°
2026-05-09 17:58 54.25650 -33.42273 38586 ft 485 kts 79°
2026-05-09 17:58 54.26624 -33.30862 38586 ft 484 kts 79°
2026-05-09 17:59 54.27584 -33.19503 38594 ft 484 kts 79°
2026-05-09 17:59 54.28535 -33.08097 38594 ft 484 kts 79°
2026-05-09 18:00 54.29476 -32.96691 38597 ft 483 kts 79°
2026-05-09 18:00 54.30404 -32.85298 38602 ft 483 kts 79°
2026-05-09 18:01 54.31322 -32.73901 38605 ft 483 kts 79°
2026-05-09 18:01 54.32224 -32.62562 38602 ft 483 kts 79°
2026-05-09 18:02 54.33119 -32.51153 38602 ft 483 kts 79°
2026-05-09 18:02 54.34005 -32.39736 38605 ft 483 kts 79°
2026-05-09 18:03 54.34879 -32.28326 38613 ft 483 kts 79°
2026-05-09 18:03 54.35744 -32.16896 38613 ft 483 kts 79°
2026-05-09 18:04 54.36597 -32.05464 38613 ft 483 kts 80°
2026-05-09 18:04 54.37437 -31.94054 38617 ft 483 kts 79°
2026-05-09 18:05 54.38269 -31.82606 38617 ft 482 kts 79°
2026-05-09 18:05 54.39084 -31.71257 38618 ft 483 kts 79°
2026-05-09 18:06 54.39895 -31.59792 38616 ft 483 kts 79°
2026-05-09 18:06 54.40694 -31.48342 38616 ft 483 kts 80°
2026-05-09 18:07 54.41482 -31.36875 38626 ft 482 kts 79°
2026-05-09 18:07 54.42252 -31.25523 38625 ft 481 kts 79°
2026-05-09 18:08 54.43016 -31.14110 38627 ft 481 kts 79°
2026-05-09 18:08 54.43771 -31.02649 38628 ft 482 kts 79°
2026-05-09 18:09 54.44514 -30.91206 38630 ft 482 kts 80°
2026-05-09 18:09 54.45245 -30.79776 38637 ft 479 kts 79°
2026-05-09 18:10 54.45959 -30.68416 38630 ft 477 kts 79°
2026-05-09 18:10 54.46664 -30.57066 38631 ft 477 kts 79°
2026-05-09 18:11 54.47354 -30.45788 38645 ft 477 kts 79°
2026-05-09 18:11 54.48038 -30.34423 38646 ft 477 kts 79°
2026-05-09 18:12 54.48710 -30.23065 38641 ft 477 kts 79°
2026-05-09 18:12 54.49370 -30.11707 38641 ft 476 kts 79°
2026-05-09 18:13 54.50020 -30.00370 38640 ft 476 kts 79°
2026-05-09 18:13 54.50564 -29.89061 38641 ft 477 kts 81°
2026-05-09 18:14 54.50982 -29.77646 38645 ft 477 kts 82°
2026-05-09 18:14 54.51396 -29.66234 38656 ft 477 kts 81°
2026-05-09 18:15 54.51819 -29.54864 38665 ft 476 kts 81°
2026-05-09 18:15 54.52239 -29.43543 38645 ft 473 kts 81°
2026-05-09 18:16 54.52649 -29.32247 38647 ft 472 kts 81°
2026-05-09 18:16 54.53049 -29.20963 38646 ft 472 kts 81°
2026-05-09 18:17 54.53434 -29.09758 38668 ft 472 kts 81°
2026-05-09 18:17 54.53811 -28.98466 38648 ft 471 kts 81°
2026-05-09 18:18 54.54176 -28.87198 38650 ft 471 kts 81°
2026-05-09 18:18 54.54531 -28.75932 38654 ft 471 kts 81°
2026-05-09 18:19 54.54876 -28.64661 38647 ft 471 kts 81°
2026-05-09 18:19 54.55372 -28.47792 38652 ft 471 kts 81°
2026-05-09 18:20 54.55692 -28.36491 38648 ft 471 kts 82°
2026-05-09 18:20 54.55999 -28.25220 38648 ft 471 kts 81°
2026-05-09 18:21 54.56294 -28.13973 38650 ft 468 kts 81°
2026-05-09 18:21 54.56578 -28.02835 38653 ft 467 kts 81°
2026-05-09 18:22 54.56853 -27.91641 38653 ft 467 kts 81°
2026-05-09 18:22 54.57117 -27.80462 38653 ft 466 kts 81°
2026-05-09 18:23 54.57366 -27.69307 38654 ft 465 kts 82°
2026-05-09 18:23 54.57601 -27.58144 38653 ft 466 kts 82°
2026-05-09 18:24 54.57830 -27.46986 38653 ft 466 kts 82°
2026-05-09 18:25 54.58159 -27.30234 38661 ft 466 kts 82°
2026-05-09 18:25 54.58363 -27.19159 38659 ft 464 kts 82°
2026-05-09 18:26 54.58560 -27.08028 38661 ft 464 kts 82°
2026-05-09 18:26 54.58746 -26.96905 38652 ft 462 kts 82°
2026-05-09 18:27 54.58918 -26.85864 38655 ft 459 kts 82°
2026-05-09 18:27 54.59082 -26.74841 38680 ft 459 kts 82°
2026-05-09 18:28 54.59237 -26.63844 38657 ft 458 kts 82°
2026-05-09 18:28 54.59380 -26.52864 38656 ft 458 kts 82°
2026-05-09 18:29 54.59513 -26.41946 38652 ft 458 kts 82°
2026-05-09 18:29 54.59637 -26.30972 38653 ft 458 kts 82°
2026-05-09 18:30 54.59751 -26.19980 38653 ft 458 kts 82°
2026-05-09 18:30 54.59854 -26.08989 38655 ft 457 kts 82°
2026-05-09 18:31 54.59947 -25.98036 38656 ft 457 kts 82°
2026-05-09 18:31 54.60030 -25.87079 38657 ft 457 kts 82°
2026-05-09 18:32 54.60105 -25.76121 38675 ft 457 kts 82°
2026-05-09 18:32 54.60167 -25.65246 38647 ft 454 kts 82°
2026-05-09 18:33 54.60219 -25.54362 38665 ft 453 kts 82°
2026-05-09 18:33 54.60264 -25.43470 38644 ft 453 kts 82°
2026-05-09 18:34 54.60300 -25.32584 38644 ft 453 kts 82°
2026-05-09 18:34 54.60324 -25.21714 38645 ft 453 kts 82°
2026-05-09 18:35 54.60339 -25.10893 38645 ft 453 kts 82°
2026-05-09 18:35 54.60344 -25.00022 38643 ft 453 kts 82°
2026-05-09 18:36 54.60338 -24.89144 38639 ft 453 kts 82°
2026-05-09 18:36 54.60324 -24.78252 38646 ft 453 kts 82°
2026-05-09 18:37 54.60300 -24.67364 38643 ft 454 kts 82°
2026-05-09 18:37 54.60266 -24.56471 38639 ft 454 kts 82°
2026-05-09 18:38 54.60221 -24.45597 38650 ft 453 kts 82°
2026-05-09 18:38 54.60165 -24.34743 38652 ft 450 kts 81°
2026-05-09 18:40 54.59876 -23.93447 38634 ft 450 kts 82°
2026-05-09 18:41 54.59776 -23.82633 38634 ft 450 kts 82°
2026-05-09 18:41 54.59666 -23.71824 38627 ft 450 kts 82°
2026-05-09 18:42 54.59548 -23.61101 38628 ft 450 kts 82°
2026-05-09 18:42 54.59420 -23.50295 38632 ft 450 kts 82°
2026-05-09 18:43 54.59281 -23.39465 38630 ft 450 kts 82°
2026-05-09 18:43 54.59133 -23.28661 38633 ft 451 kts 82°
2026-05-09 18:44 54.58976 -23.17870 38657 ft 450 kts 82°
2026-05-09 18:44 54.58807 -23.07102 38625 ft 447 kts 82°
2026-05-09 18:45 54.58633 -22.96463 38623 ft 447 kts 82°
2026-05-09 18:45 54.58450 -22.85735 38624 ft 447 kts 82°
2026-05-09 18:46 54.58257 -22.75028 38625 ft 447 kts 82°
2026-05-09 18:46 54.58053 -22.64275 38620 ft 447 kts 82°
2026-05-09 18:47 54.57840 -22.53590 38616 ft 447 kts 82°
2026-05-09 18:47 54.57618 -22.42914 38616 ft 447 kts 82°
2026-05-09 18:48 54.57386 -22.32197 38617 ft 447 kts 82°
2026-05-09 18:48 54.57145 -22.21473 38614 ft 448 kts 82°
2026-05-09 18:49 54.56893 -22.10740 38617 ft 448 kts 82°
2026-05-09 18:49 54.56632 -22.00013 38637 ft 448 kts 82°
2026-05-09 18:50 54.56362 -21.89282 38613 ft 448 kts 83°
2026-05-09 18:50 54.56082 -21.78628 38613 ft 446 kts 83°
2026-05-09 18:51 54.55794 -21.67945 38609 ft 446 kts 83°
2026-05-09 18:51 54.55498 -21.57258 38610 ft 446 kts 83°
2026-05-09 18:52 54.55190 -21.46555 38604 ft 447 kts 83°
2026-05-09 18:52 54.54874 -21.35861 38609 ft 447 kts 83°
2026-05-09 18:53 54.54549 -21.25198 38609 ft 448 kts 83°
2026-05-09 18:53 54.54212 -21.14461 38605 ft 449 kts 83°
2026-05-09 18:54 54.53865 -21.03735 38598 ft 449 kts 83°
2026-05-09 18:54 54.53508 -20.92981 38604 ft 449 kts 83°
2026-05-09 18:55 54.53142 -20.82246 38640 ft 449 kts 83°
2026-05-09 18:55 54.52767 -20.71509 38598 ft 450 kts 84°
2026-05-09 18:56 54.52384 -20.60809 38597 ft 450 kts 84°
2026-05-09 18:56 54.51987 -20.50098 38586 ft 448 kts 84°
2026-05-09 18:57 54.51584 -20.39397 38589 ft 447 kts 84°
2026-05-09 18:57 54.51174 -20.28708 38589 ft 448 kts 84°
2026-05-09 18:58 54.50753 -20.18015 38588 ft 448 kts 84°
2026-05-09 18:58 54.50322 -20.07289 38586 ft 450 kts 84°
2026-05-09 18:59 54.49363 -19.96511 38590 ft 464 kts 95°
2026-05-09 18:59 54.47602 -19.85859 38583 ft 467 kts 97°
2026-05-09 19:00 54.45687 -19.75172 38583 ft 467 kts 97°
2026-05-09 19:00 54.42810 -19.59226 38608 ft 468 kts 97°
2026-05-09 19:01 54.40889 -19.48525 38573 ft 470 kts 97°
2026-05-09 19:01 54.38956 -19.37802 38573 ft 470 kts 97°
2026-05-09 19:02 54.37011 -19.27086 38573 ft 471 kts 97°
2026-05-09 19:02 54.35053 -19.16367 38568 ft 471 kts 97°
2026-05-09 19:03 54.33089 -19.05669 38562 ft 471 kts 98°
2026-05-09 19:03 54.31112 -18.94962 38596 ft 471 kts 98°
2026-05-09 19:04 54.29127 -18.84264 38572 ft 473 kts 98°
2026-05-09 19:04 54.27135 -18.73596 38559 ft 473 kts 98°
2026-05-09 19:05 54.25119 -18.62873 38562 ft 473 kts 98°
2026-05-09 19:05 54.23092 -18.52153 38550 ft 473 kts 98°
2026-05-09 19:06 54.21057 -18.41438 38551 ft 474 kts 99°
2026-05-09 19:06 54.19012 -18.30733 38589 ft 474 kts 99°
2026-05-09 19:07 54.16955 -18.20025 38545 ft 476 kts 99°
2026-05-09 19:07 54.14894 -18.09351 38564 ft 477 kts 99°
2026-05-09 19:08 54.12803 -17.98596 38544 ft 477 kts 99°
2026-05-09 19:08 54.10706 -17.87867 38533 ft 477 kts 99°
2026-05-09 19:09 54.08597 -17.77138 38537 ft 477 kts 99°
2026-05-09 19:09 54.06480 -17.66421 38571 ft 477 kts 99°
2026-05-09 19:10 54.04349 -17.55686 38527 ft 480 kts 100°
2026-05-09 19:10 54.02204 -17.44943 38527 ft 480 kts 100°
2026-05-09 19:11 54.00039 -17.34171 38541 ft 481 kts 100°
2026-05-09 19:11 53.97877 -17.23465 38516 ft 482 kts 101°
2026-05-09 19:12 53.95687 -17.12684 38517 ft 482 kts 101°
2026-05-09 19:12 53.93487 -17.01913 38535 ft 483 kts 101°
2026-05-09 19:13 53.91272 -16.91115 38510 ft 485 kts 101°
2026-05-09 19:13 53.89040 -16.80299 38510 ft 486 kts 101°
2026-05-09 19:14 53.86794 -16.69481 38500 ft 486 kts 101°
2026-05-09 19:14 53.84554 -16.58748 38511 ft 486 kts 102°
2026-05-09 19:15 53.82288 -16.47944 38503 ft 487 kts 102°
2026-05-09 19:15 53.80008 -16.37134 38497 ft 487 kts 102°
2026-05-09 19:16 53.77722 -16.26352 38491 ft 487 kts 102°
2026-05-09 19:16 53.75428 -16.15588 38489 ft 487 kts 102°
2026-05-09 19:17 53.73135 -16.04890 38484 ft 487 kts 102°
2026-05-09 19:17 53.70820 -15.94141 38487 ft 487 kts 102°
2026-05-09 19:18 53.68491 -15.83382 38493 ft 487 kts 102°
2026-05-09 19:18 53.66153 -15.72639 38485 ft 488 kts 103°
2026-05-09 19:19 53.63815 -15.61956 38469 ft 488 kts 103°
2026-05-09 19:19 53.61454 -15.51225 38461 ft 488 kts 103°
2026-05-09 19:20 53.59081 -15.40492 38463 ft 488 kts 103°
2026-05-09 19:20 53.56703 -15.29790 38470 ft 488 kts 103°
2026-05-09 19:21 53.54315 -15.19098 38454 ft 488 kts 103°
2026-05-09 19:21 53.51914 -15.08400 38459 ft 488 kts 104°
2026-05-09 19:22 53.50241 -14.97540 38455 ft 473 kts 90°
2026-05-09 19:22 53.50002 -14.86646 38454 ft 468 kts 84°
2026-05-09 19:23 53.50040 -14.75706 38452 ft 468 kts 83°
2026-05-09 19:23 53.50101 -14.64780 38452 ft 468 kts 84°
2026-05-09 19:24 53.50128 -14.53827 38448 ft 469 kts 84°
2026-05-09 19:24 53.50129 -14.42848 38446 ft 471 kts 84°
2026-05-09 19:25 53.50118 -14.33684 38444 ft 471 kts 84°
2026-05-09 19:25 53.50096 -14.22663 38444 ft 471 kts 84°
2026-05-09 19:26 53.50066 -14.11659 38438 ft 471 kts 85°
2026-05-09 19:26 53.50027 -14.00694 38486 ft 474 kts 85°
2026-05-09 19:27 53.50057 -13.95139 38744 ft 473 kts 83°
2026-05-09 19:27 53.50236 -13.89647 39104 ft 470 kts 81°
2026-05-09 19:27 53.50486 -13.84165 39338 ft 470 kts 81°
2026-05-09 19:27 53.50755 -13.78679 39420 ft 472 kts 81°
2026-05-09 19:28 53.51251 -13.67728 39431 ft 473 kts 81°
2026-05-09 19:28 53.51681 -13.56698 39430 ft 473 kts 82°
2026-05-09 19:29 53.52077 -13.45633 39418 ft 475 kts 82°
2026-05-09 19:29 53.52461 -13.34504 39419 ft 476 kts 82°
2026-05-09 19:30 53.52836 -13.23392 39429 ft 476 kts 82°
2026-05-09 19:30 53.53203 -13.12263 39415 ft 476 kts 82°
2026-05-09 19:31 53.53558 -13.01209 39432 ft 476 kts 83°
2026-05-09 19:31 53.53908 -12.90025 39408 ft 480 kts 83°
2026-05-09 19:32 53.54247 -12.78798 39409 ft 481 kts 83°
2026-05-09 19:32 53.54575 -12.67563 39405 ft 481 kts 83°
2026-05-09 19:33 53.54894 -12.56304 39409 ft 481 kts 83°
2026-05-09 19:33 53.55200 -12.45119 39409 ft 482 kts 83°
2026-05-09 19:34 53.55500 -12.33833 39406 ft 484 kts 84°
2026-05-09 19:34 53.55789 -12.22511 39399 ft 484 kts 84°
2026-05-09 19:35 53.56067 -12.11171 39398 ft 484 kts 84°
2026-05-09 19:35 53.56334 -11.99853 39395 ft 484 kts 84°
2026-05-09 19:36 53.56591 -11.88505 39395 ft 486 kts 84°
2026-05-09 19:36 53.56839 -11.77119 39391 ft 487 kts 84°
2026-05-09 19:37 53.57075 -11.65737 39382 ft 487 kts 84°
2026-05-09 19:37 53.57299 -11.54416 39381 ft 487 kts 84°
2026-05-09 19:38 53.57514 -11.43016 39384 ft 487 kts 84°
2026-05-09 19:38 53.57719 -11.31603 39375 ft 488 kts 85°
2026-05-09 19:39 53.57912 -11.20192 39372 ft 488 kts 84°
2026-05-09 19:39 53.58095 -11.08757 39371 ft 489 kts 85°
2026-05-09 19:40 53.58267 -10.97317 39371 ft 489 kts 84°
2026-05-09 19:40 53.58428 -10.85888 39372 ft 489 kts 84°
2026-05-09 19:41 53.58578 -10.74450 39367 ft 489 kts 85°
2026-05-09 19:41 53.58717 -10.63029 39367 ft 489 kts 85°
2026-05-09 19:42 53.58846 -10.51574 39370 ft 489 kts 85°
2026-05-09 19:42 53.58963 -10.40215 39358 ft 489 kts 86°
2026-05-09 19:43 53.59070 -10.28752 39364 ft 491 kts 86°
2026-05-09 19:43 53.59167 -10.17235 39356 ft 491 kts 86°
2026-05-09 19:44 53.59251 -10.05723 39348 ft 491 kts 86°
2026-05-09 19:44 53.59325 -9.94298 39347 ft 491 kts 86°
2026-05-09 19:45 53.59387 -9.82804 39346 ft 492 kts 86°
2026-05-09 19:45 53.59440 -9.71255 39346 ft 493 kts 86°
2026-05-09 19:46 53.59482 -9.59693 39345 ft 494 kts 87°
2026-05-09 19:46 53.59512 -9.48121 39349 ft 494 kts 87°
2026-05-09 19:47 53.59531 -9.36548 39344 ft 494 kts 87°
2026-05-09 19:47 53.59539 -9.25054 39334 ft 495 kts 87°
2026-05-09 19:48 53.59536 -9.13456 39312 ft 496 kts 87°
2026-05-09 19:48 53.59521 -9.01839 39314 ft 496 kts 87°
2026-05-09 19:49 53.59496 -8.90233 39306 ft 496 kts 88°
2026-05-09 19:49 53.59459 -8.78619 39310 ft 496 kts 88°
2026-05-09 19:50 53.59410 -8.66959 39306 ft 497 kts 88°
2026-05-09 19:50 53.59350 -8.55311 39306 ft 498 kts 88°
2026-05-09 19:51 53.59280 -8.43732 39303 ft 498 kts 88°
2026-05-09 19:51 53.59197 -8.32054 39302 ft 497 kts 88°
2026-05-09 19:52 53.59104 -8.20377 39304 ft 499 kts 89°
2026-05-09 19:52 53.58999 -8.08758 39302 ft 500 kts 89°
2026-05-09 19:53 53.58881 -7.97035 39303 ft 501 kts 89°
2026-05-09 19:53 53.58753 -7.85297 39295 ft 501 kts 89°
2026-05-09 19:54 53.58613 -7.73578 39301 ft 501 kts 89°
2026-05-09 19:54 53.58462 -7.61838 39296 ft 503 kts 89°
2026-05-09 19:55 53.58300 -7.50193 39296 ft 503 kts 89°
2026-05-09 19:56 53.58032 -7.32475 39296 ft 503 kts 90°
2026-05-09 19:56 53.57840 -7.20726 39300 ft 503 kts 90°
2026-05-09 19:57 53.57635 -7.08926 39290 ft 504 kts 90°
2026-05-09 19:57 53.57435 -6.97962 39290 ft 505 kts 90°
2026-05-09 19:58 53.57265 -6.89065 39296 ft 505 kts 90°
2026-05-09 19:58 53.57027 -6.77194 39293 ft 505 kts 90°
2026-05-09 19:59 53.56779 -6.65371 39292 ft 506 kts 91°
2026-05-09 19:59 53.56521 -6.53596 39277 ft 507 kts 91°
2026-05-09 20:00 53.56248 -6.41718 39280 ft 507 kts 91°
2026-05-09 20:00 53.56060 -6.33800 39286 ft 509 kts 91°
2026-05-09 20:01 53.55763 -6.21733 39281 ft 510 kts 91°
2026-05-09 20:01 53.55458 -6.09792 39278 ft 511 kts 92°
2026-05-09 20:02 53.55144 -5.98024 39275 ft 512 kts 92°
2026-05-09 20:02 53.54813 -5.86027 39275 ft 512 kts 92°
2026-05-09 20:03 53.54316 -5.68769 39266 ft 512 kts 92°
2026-05-09 20:03 53.53956 -5.56810 39265 ft 512 kts 92°
2026-05-09 20:04 53.53594 -5.44844 39248 ft 511 kts 92°
2026-05-09 20:04 53.53441 -5.38905 38776 ft 507 kts 91°
2026-05-09 20:04 53.53301 -5.32942 37861 ft 510 kts 91°
2026-05-09 20:05 53.53162 -5.26977 36967 ft 513 kts 91°
2026-05-09 20:05 53.53019 -5.20977 36251 ft 512 kts 92°
2026-05-09 20:05 53.52872 -5.15076 35583 ft 511 kts 92°
2026-05-09 20:05 53.52713 -5.09107 34869 ft 510 kts 92°
2026-05-09 20:06 53.52530 -5.03146 34101 ft 512 kts 93°
2026-05-09 20:06 53.52334 -4.97170 33253 ft 512 kts 93°
2026-05-09 20:06 53.52132 -4.91191 32451 ft 512 kts 93°
2026-05-09 20:06 53.51929 -4.85212 31636 ft 512 kts 94°
2026-05-09 20:07 53.51731 -4.79259 30828 ft 512 kts 94°
2026-05-09 20:07 53.51530 -4.73273 29915 ft 513 kts 94°
2026-05-09 20:07 53.51324 -4.67265 29004 ft 513 kts 94°
2026-05-09 20:07 53.51117 -4.61299 28407 ft 507 kts 95°
2026-05-09 20:08 53.50911 -4.55421 27788 ft 501 kts 95°
2026-05-09 20:08 53.50497 -4.43847 26578 ft 492 kts 95°
2026-05-09 20:08 53.50291 -4.38195 25978 ft 488 kts 95°
2026-05-09 20:09 53.50082 -4.32512 25379 ft 485 kts 95°
2026-05-09 20:09 53.49872 -4.26894 24791 ft 481 kts 95°
2026-05-09 20:09 53.49660 -4.21301 24077 ft 480 kts 95°
2026-05-09 20:09 53.49448 -4.15744 22731 ft 471 kts 95°
2026-05-09 20:10 53.49191 -4.10266 21199 ft 468 kts 98°
2026-05-09 20:10 53.48922 -4.06704 20431 ft 461 kts 101°
2026-05-09 20:10 53.48551 -4.01383 19627 ft 457 kts 96°
2026-05-09 20:10 53.48123 -3.96127 19112 ft 452 kts 104°
2026-05-09 20:11 53.47341 -3.91038 18642 ft 448 kts 108°
2026-05-09 20:11 53.46436 -3.86040 18063 ft 442 kts 109°
2026-05-09 20:11 53.45509 -3.81231 17423 ft 426 kts 110°
2026-05-09 20:11 53.44570 -3.76527 16894 ft 429 kts 110°
2026-05-09 20:12 53.43601 -3.71771 16308 ft 431 kts 110°
2026-05-09 20:12 53.42625 -3.67033 15654 ft 428 kts 110°
2026-05-09 20:12 53.41685 -3.62337 15008 ft 424 kts 107°
2026-05-09 20:12 53.41174 -3.57477 14372 ft 418 kts 95°
2026-05-09 20:13 53.40956 -3.52767 13716 ft 394 kts 94°
2026-05-09 20:13 53.40776 -3.48347 13067 ft 374 kts 94°
2026-05-09 20:13 53.40597 -3.44057 12397 ft 356 kts 94°
2026-05-09 20:13 53.40424 -3.40062 11759 ft 341 kts 94°
2026-05-09 20:14 53.40252 -3.36171 11120 ft 328 kts 94°
2026-05-09 20:14 53.40084 -3.32420 10541 ft 316 kts 94°
2026-05-09 20:14 53.39922 -3.28860 10222 ft 298 kts 95°
2026-05-09 20:14 53.39763 -3.25400 9995 ft 300 kts 95°
2026-05-09 20:15 53.39600 -3.21896 9690 ft 302 kts 95°
2026-05-09 20:15 53.39437 -3.18424 9384 ft 297 kts 94°
2026-05-09 20:15 53.39265 -3.14976 9071 ft 295 kts 96°
2026-05-09 20:15 53.38779 -3.11649 8780 ft 294 kts 111°
2026-05-09 20:16 53.38017 -3.08506 8504 ft 291 kts 113°
2026-05-09 20:16 53.37226 -3.05390 8211 ft 289 kts 113°
2026-05-09 20:16 53.36455 -3.02346 7925 ft 287 kts 113°
2026-05-09 20:16 53.35668 -2.99220 7612 ft 287 kts 113°
2026-05-09 20:17 53.34897 -2.96149 7321 ft 285 kts 112°
2026-05-09 20:17 53.34133 -2.93106 7036 ft 282 kts 112°
2026-05-09 20:17 53.33375 -2.90084 6750 ft 280 kts 112°
2026-05-09 20:17 53.32637 -2.87146 6463 ft 276 kts 111°
2026-05-09 20:18 53.31895 -2.84190 6174 ft 275 kts 111°
2026-05-09 20:18 53.31156 -2.81257 5877 ft 274 kts 111°
2026-05-09 20:18 53.30416 -2.78317 5469 ft 273 kts 111°
2026-05-09 20:18 53.29684 -2.75419 5146 ft 269 kts 111°
2026-05-09 20:19 53.28960 -2.72553 4843 ft 267 kts 110°
2026-05-09 20:19 53.28241 -2.69707 4627 ft 262 kts 110°
2026-05-09 20:19 53.27552 -2.66991 4504 ft 247 kts 110°
2026-05-09 20:19 53.26894 -2.64413 4433 ft 233 kts 109°
2026-05-09 20:20 53.26278 -2.61990 4321 ft 221 kts 109°
2026-05-09 20:20 53.25692 -2.59687 4235 ft 207 kts 110°
2026-05-09 20:20 53.25150 -2.57559 4152 ft 193 kts 110°
2026-05-09 20:20 53.24631 -2.55525 4022 ft 189 kts 108°
2026-05-09 20:21 53.24142 -2.53495 3743 ft 186 kts 107°